Location: Medlow Airstrip Trail, Medlow Bath NSW 2780, Australia
(33.6682°S, 150.3233°E)
Time: 14:00:58
(UTC+10:00)

A-11 Canister half - All Passes

Search period start: 16 September 2019 00:00
Search period end: 26 September 2019 00:00
Orbit: 1527 x 1682 km, 47.3° (Epoch: 15 September)

Date Brightness Start Highest point End Pass type
(mag) Time Alt. Az. Time Alt. Az. Time Alt. Az.
16 Sep - 01:28:24 10° WSW 01:36:19 31° NW 01:44:09 10° N night (unlit)
16 Sep - 14:37:41 10° N 14:46:05 31° NE 14:54:20 10° ESE daylight
16 Sep - 16:40:24 10° NW 16:50:31 84° SW 17:00:25 10° SE daylight
16 Sep - 18:47:28 10° W 18:56:44 41° SSW 19:05:44 10° SE visible
16 Sep - 20:55:03 10° SW 21:04:02 39° S 21:12:44 10° ESE visible
16 Sep - 23:00:43 10° SW 23:10:21 76° SE 23:19:42 10° ENE visible
17 Sep - 01:06:37 10° WSW 01:14:45 34° NW 01:22:46 10° N night (unlit)
17 Sep - 14:16:17 10° N 14:24:29 29° NE 14:32:33 10° ESE daylight
17 Sep - 16:18:43 10° NW 16:28:52 87° SW 16:38:46 10° SE daylight
17 Sep - 18:25:41 10° W 18:35:00 42° SSW 18:44:04 10° SE visible
17 Sep - 20:33:20 10° WSW 20:42:19 38° S 20:51:01 10° ESE visible
17 Sep - 22:39:03 10° SW 22:48:43 73° SSE 22:58:04 10° ENE visible
18 Sep - 00:44:53 10° WSW 00:53:12 36° NW 01:01:22 10° NNE night (unlit)
18 Sep - 13:54:55 10° N 14:02:54 27° NE 14:10:45 10° ESE daylight
18 Sep - 15:57:03 10° NW 16:07:12 89° NNE 16:17:09 10° SE daylight
18 Sep - 18:03:53 10° W 18:13:16 43° SSW 18:22:25 10° SE visible
18 Sep - 20:11:36 10° WSW 20:20:35 38° S 20:29:17 10° ESE visible
18 Sep - 22:17:24 10° SW 22:27:04 71° SSE 22:36:24 10° ENE visible
19 Sep - 00:23:08 10° WSW 00:31:37 38° NW 00:39:57 10° NNE visible
19 Sep - 13:33:36 10° N 13:41:18 25° NE 13:48:56 10° ESE daylight
19 Sep - 15:35:23 10° NW 15:45:33 86° NE 15:55:31 10° SE daylight
19 Sep - 17:42:06 10° W 17:51:33 44° SSW 18:00:45 10° SE daylight
19 Sep - 19:49:52 10° WSW 19:58:50 37° S 20:07:32 10° ESE visible
19 Sep - 21:55:45 10° SW 22:05:25 68° SSE 22:14:45 10° ENE visible
20 Sep - 00:01:25 10° WSW 00:10:03 41° NW 00:18:31 10° NNE visible
20 Sep - 13:12:16 10° N 13:19:43 24° NE 13:27:05 10° ESE daylight
20 Sep - 15:13:45 10° NW 15:23:54 83° NE 15:33:52 10° SE daylight
20 Sep - 17:20:18 10° W 17:29:49 45° SSW 17:39:06 10° SE daylight
20 Sep - 19:28:07 10° WSW 19:37:06 37° S 19:45:49 10° ESE visible
20 Sep - 21:34:05 10° SW 21:43:45 65° SSE 21:53:05 10° ENE visible
20 Sep - 23:39:41 10° WSW 23:48:29 43° NW 23:57:05 10° NNE visible
21 Sep - 12:51:00 10° N 12:58:08 22° NE 13:05:12 10° E daylight
21 Sep - 14:52:06 10° NW 15:02:15 79° NE 15:12:13 10° SE daylight
21 Sep - 16:58:30 10° W 17:08:05 46° SSW 17:17:27 10° SE daylight
21 Sep - 19:06:21 10° WSW 19:15:22 37° S 19:24:05 10° ESE visible
21 Sep - 21:12:25 10° SW 21:22:05 63° SSE 21:31:25 10° ENE visible
21 Sep - 23:17:58 10° WSW 23:26:55 46° NW 23:35:38 10° NNE visible
22 Sep - 12:29:45 10° NNE 12:36:33 20° NE 12:43:17 10° E daylight
22 Sep - 14:30:28 10° NW 14:40:36 76° NE 14:50:35 10° SE daylight
22 Sep - 16:36:43 10° W 16:46:22 48° SSW 16:55:48 10° SE daylight
22 Sep - 18:44:36 10° WSW 18:53:37 37° S 19:02:21 10° ESE visible
22 Sep - 20:50:45 10° SW 21:00:26 61° SSE 21:09:44 10° ENE visible
22 Sep - 22:56:16 10° WSW 23:05:20 49° NW 23:14:09 10° NNE visible
23 Sep - 12:08:33 10° NNE 12:14:58 19° ENE 12:21:21 10° E daylight
23 Sep - 14:08:51 10° NW 14:18:57 73° NE 14:28:55 10° ESE daylight
23 Sep - 16:14:55 10° W 16:24:39 49° SSW 16:34:09 10° SE daylight
23 Sep - 18:22:51 10° WSW 18:31:52 37° S 18:40:37 10° ESE visible
23 Sep - 20:29:05 10° SW 20:38:45 59° SSE 20:48:03 10° ENE visible
23 Sep - 22:34:33 10° WSW 22:43:45 52° NW 22:52:40 10° NNE visible
24 Sep - 11:47:24 10° NNE 11:53:23 17° ENE 11:59:20 10° E daylight
24 Sep - 13:47:14 10° NW 13:57:19 69° NE 14:07:16 10° ESE daylight
24 Sep - 15:53:08 10° W 16:02:56 50° SSW 16:12:30 10° SE daylight
24 Sep - 18:01:04 10° WSW 18:10:07 37° S 18:18:54 10° ESE visible
24 Sep - 20:07:24 10° SW 20:17:04 57° SSE 20:26:21 10° ENE visible
24 Sep - 22:12:51 10° WSW 22:22:10 55° NW 22:31:11 10° NNE visible
25 Sep - 00:24:40 10° WNW 00:25:36 10° WNW 00:26:32 10° NW night (unlit)
25 Sep - 11:26:18 10° NNE 11:31:49 16° ENE 11:37:17 10° E daylight
25 Sep - 13:25:39 10° NW 13:35:41 66° NE 13:45:36 10° ESE daylight
25 Sep - 15:31:22 10° W 15:41:12 52° SSW 15:50:51 10° SE daylight
25 Sep - 17:39:18 10° WSW 17:48:22 37° S 17:57:11 10° ESE daylight
25 Sep - 19:45:44 10° SW 19:55:23 55° SSE 20:04:40 10° ENE visible
25 Sep - 21:51:10 10° WSW 22:00:34 58° NW 22:09:40 10° NNE visible
